Вернуться в каталог

COSMOS 1275 DEB

АктивенPO
NORAD 12743·DEBRIS·🇷🇺 Russia

Запущен Jun 4, 1981 с Plesetsk Cosmodrome

Loading…

Ближайшие Пролёты (ближайшие 24 часа)

TLE

СвежийSource: Space-Track

Эпоха: Sep 14, 2026, 10:46 UTC

1 12743U 81053CL  26257.44921404  .00000420  00000-0  38217-3 0  9994
2 12743  82.9252 145.2496 0061878 287.5259 248.4653 13.80492051263585

Отслеживайте COSMOS 1275 DEB в реальном времени с AllMySat

Download on the App Store